User: anonymous   Login
Location: Pabrico
(37.5827°N, 122.0063°W)
Time: 11:28:13
(UTC+00:00)
Language:

KORONAS-FOTON - Orbit

View from above orbital plane
View from above orbital plane
View from above satellite
View from above satellite

Ground track
Ground track

The orbit data is extracted from the following two-line orbital elements,

1 33504U 09003A   24164.93631761  .00007505  00000-0  28770-3 0  9994
2 33504  82.4368 207.0998 0013922 252.7964 107.1751 15.26256255848376
Epoch (UTC): 12 June 2024 22:28:17
Eccentricity: 0.0013922
inclination: 82.4368°
perigee height: 477 km
apogee height: 496 km
right ascension of ascending node: 207.0998°
argument of perigee: 252.7964°
revolutions per day: 15.26256255
mean anomaly at epoch: 107.1751°
orbit number at epoch: 84837

The dashed part of the orbit path shows where the satellite is in the earth's shadow,  

DLR